Zurück zum Katalog

SL-16 DEB

AktivLEO
NORAD 22502·DEBRIS·🇷🇺 Russia

Gestartet Dec 25, 1992 von Baikonur Cosmodrome

Loading…

Nächste Überflüge (nächste 24 Stunden)

TLE

AktuellSource: Space-Track

Epoche: Sep 14, 2026, 03:31 UTC

1 22502U 92093GM  26257.14657247  .00000165  00000-0  15657-3 0  9991
2 22502  70.8160 152.6503 0151525 167.4080 343.7260 13.89755122706700

Verfolge SL-16 DEB in Echtzeit mit AllMySat

Download on the App Store